FW8189 Weather Reports


time (UTC)temp
C
wind
direction
speed
KPH
gust
KPH
rain 1hr
cm
rain 24hr
cm
rain mn
cm
humidity
%
barometer
mb
20260505130121 13 180 1.6 3.2 0.00 0.00 0.00 76 1019.5
20260505124120 11 112 1.6 3.2 0.00 0.00 0.00 74 1019.1
20260505123122 10 122 0.0 1.6 0.00 0.00 0.00 74 1019.0
20260505122122 10 360 0.0 0.0 0.00 0.00 0.00 73 1019.0
20260505121120 9 180 0.0 1.6 0.00 0.00 0.00 73 1018.9
20260505120121 8 180 0.0 1.6 0.00 0.00 0.00 72 1018.8
20260505114122 7 180 0.0 1.6 0.00 0.00 0.00 71 1018.5
20260505114020 7 180 0.0 0.0 0.00 0.00 0.00 71 1018.4
20260505112020 7 180 0.0 0.0 0.00 0.00 0.00 69 1018.4
20260505111020 7 180 0.0 0.0 0.00 0.00 0.00 69 1018.3
20260505102220 8 180 0.0 1.6 0.00 0.00 0.00 68 1018.4
20260505101221 8 180 0.0 0.0 0.00 0.00 0.00 66 1018.1
20260505100235 8 180 0.0 1.6 0.00 0.00 0.00 66 1018.2
20260505095219 8 180 0.0 1.6 0.00 0.00 0.00 66 1018.1
20260505095120 8 180 0.0 0.0 0.00 0.00 0.00 66 1018.2
20260505094135 8 180 0.0 0.0 0.00 0.00 0.00 66 1018.2
20260505092221 8 315 0.0 0.0 0.00 0.00 0.00 65 1018.4
20260505091320 9 180 0.0 0.0 0.00 0.00 0.00 65 1018.4
20260505085422 10 315 0.0 1.6 0.00 0.00 0.00 64 1018.5
20260505084434 10 315 0.0 0.0 0.00 0.00 0.00 63 1018.4
20260505083519 9 191 0.0 3.2 0.00 0.00 0.00 63 1018.4
20260505082521 9 180 0.0 3.2 0.00 0.00 0.00 63 1018.3
20260505081520 9 292 0.0 1.6 0.00 0.00 0.00 62 1018.5
20260505080519 9 292 0.0 3.2 0.00 0.00 0.00 61 1018.3
20260505075535 9 315 0.0 0.0 0.00 0.00 0.00 61 1018.4
20260505074619 9 315 0.0 0.0 0.00 0.00 0.00 61 1018.3
20260505073636 9 315 0.0 0.0 0.00 0.00 0.00 60 1018.6
20260505072721 9 315 0.0 0.0 0.00 0.00 0.00 60 1018.4
20260505071722 10 315 0.0 0.0 0.00 0.00 0.00 59 1018.4
20260505070820 10 315 0.0 0.0 0.00 0.00 0.00 59 1018.4
20260505065822 10 315 0.0 0.0 0.00 0.00 0.00 58 1018.3
20260505065719 10 315 0.0 0.0 0.00 0.00 0.00 58 1018.4
20260505064819 10 315 0.0 0.0 0.00 0.00 0.00 57 1018.4
20260505063822 11 315 0.0 0.0 0.00 0.00 0.00 58 1018.3
20260505062820 11 315 0.0 0.0 0.00 0.00 0.00 56 1018.3
20260505060820 11 315 0.0 0.0 0.00 0.00 0.00 56 1018.5
20260505055819 11 315 0.0 0.0 0.00 0.00 0.00 56 1018.6
20260505054820 11 315 0.0 0.0 0.00 0.00 0.00 56 1018.7
20260505053820 11 315 0.0 0.0 0.00 0.00 0.00 55 1018.8
20260505052919 11 315 0.0 0.0 0.00 0.00 0.00 55 1018.7
20260505051935 12 315 0.0 0.0 0.00 0.00 0.00 55 1018.7
20260505050922 12 315 0.0 0.0 0.00 0.00 0.00 53 1018.6
20260505041020 13 315 0.0 1.6 0.00 0.00 0.00 52 1018.7
20260505035139 13 22 0.0 0.0 0.00 0.00 0.00 51 1018.7
20260505034219 13 180 0.0 0.0 0.00 0.00 0.00 51 1018.8
20260505034136 13 180 0.0 0.0 0.00 0.00 0.00 51 1018.7
20260505033222 13 22 0.0 1.6 0.00 0.00 0.00 50 1018.8
20260505032236 13 22 0.0 0.0 0.00 0.00 0.00 50 1018.8
20260505031319 14 22 0.0 0.0 0.00 0.00 0.00 50 1018.8
20260505025321 14 112 0.0 0.0 0.00 0.00 0.00 49 1018.8
20260505024419 15 22 1.6 3.2 0.00 0.00 0.00 48 1018.8
20260505023420 15 157 0.0 1.6 0.00 0.00 0.00 47 1018.7
20260505022438 15 247 0.0 1.6 0.00 0.00 0.00 48 1018.7
20260505020520 15 22 0.0 0.0 0.00 0.00 0.00 47 1018.6
20260505015619 16 22 0.0 0.0 0.00 0.00 0.00 46 1018.5
20260505014621 16 22 0.0 0.0 0.00 0.00 0.00 47 1018.3
20260505013622 16 22 0.0 0.0 0.00 0.00 0.00 47 1018.3
20260505012621 17 22 0.0 0.0 0.00 0.00 0.00 47 1018.2
20260505011620 17 22 0.0 1.6 0.00 0.00 0.00 46 1018.1
20260505004719 18 22 0.0 1.6 0.00 0.00 0.00 46 1017.9
20260505003721 19 179 0.0 3.2 0.00 0.00 0.00 46 1017.8
20260505002819 19 180 0.0 1.6 0.00 0.00 0.00 45 1017.6
20260505000920 20 180 3.2 8.0 0.00 0.00 0.00 46 1017.6
20260504235936 20 89 3.2 6.4 0.00 0.00 0.00 46 1017.4
20260504234919 20 177 1.6 4.8 0.00 0.00 0.00 45 1017.2
20260504233921 20 135 4.8 6.4 0.00 0.00 0.00 45 1017.3
20260504233021 20 180 3.2 4.8 0.00 0.00 0.00 44 1017.1
20260504232021 20 302 1.6 4.8 0.00 0.00 0.00 45 1017.2
20260504231019 21 157 0.0 0.0 0.00 0.00 0.00 45 1017.2
20260504230021 21 47 0.0 3.2 0.00 0.00 0.00 45 1017.0
20260504224020 21 47 3.2 8.0 0.00 0.00 0.00 45 1017.0
20260504223119 21 153 0.0 1.6 0.00 0.00 0.00 45 1017.1
20260504222119 22 72 1.6 4.8 0.00 0.00 0.00 45 1017.2
20260504220121 22 180 0.0 1.6 0.00 0.00 0.00 46 1016.8
20260504215119 23 180 0.0 1.6 0.00 0.00 0.00 46 1016.9
20260504214120 23 133 0.0 1.6 0.00 0.00 0.00 46 1016.8
20260504213119 23 180 0.0 0.0 0.00 0.00 0.00 47 1016.8
20260504211136 24 180 0.0 1.6 0.00 0.00 0.00 47 1016.8
20260504210119 25 180 0.0 0.0 0.00 0.00 0.00 48 1016.8
20260504205219 25 22 0.0 0.0 0.00 0.00 0.00 48 1016.8
20260504204220 26 180 0.0 1.6 0.00 0.00 0.00 49 1016.9
20260504203219 25 180 0.0 1.6 0.00 0.00 0.00 49 1017.1
20260504202219 25 22 1.6 3.2 0.00 0.00 0.00 50 1017.1
20260504202120 25 22 1.6 3.2 0.00 0.00 0.00 50 1017.1
20260504201120 25 64 0.0 1.6 0.00 0.00 0.00 50 1017.3
20260504200120 25 241 0.0 0.0 0.00 0.00 0.00 50 1017.5
20260504195119 25 180 0.0 1.6 0.00 0.00 0.00 52 1017.4
20260504194121 25 159 3.2 6.4 0.00 0.00 0.00 52 1017.6
20260504193120 25 22 0.0 1.6 0.00 0.00 0.00 53 1017.7
20260504192120 25 128 0.0 1.6 0.00 0.00 0.00 53 1018.0
20260504191218 26 180 1.6 3.2 0.00 0.00 0.00 55 1018.0
20260504190221 25 145 0.0 1.6 0.00 0.00 0.00 56 1018.2
20260504185119 24 166 0.0 3.2 0.00 0.00 0.00 56 1018.5
20260504182219 23 180 1.6 3.2 0.00 0.00 0.00 59 1018.9
20260504181222 23 112 1.6 1.6 0.00 0.00 0.00 60 1019.0
20260504180218 22 78 0.0 4.8 0.00 0.00 0.00 60 1019.0
20260504175236 22 112 3.2 6.4 0.00 0.00 0.00 60 1019.1
20260504174319 22 125 3.2 4.8 0.00 0.00 0.00 62 1019.3
20260504173319 23 123 3.2 11.3 0.00 0.00 0.00 62 1019.4
20260504172322 22 112 0.0 0.0 0.00 0.00 0.00 63 1019.4
20260504171419 22 141 0.0 3.2 0.00 0.00 0.00 64 1019.4
20260504170418 22 115 1.6 4.8 0.00 0.00 0.00 64 1019.6
20260504150620 18 113 1.6 3.2 0.00 0.00 0.00 73 1021.3